| time (UTC) | temp F | wind direction | speed MPH | gust MPH | rain 1hr in | rain 24hr in | rain mn in | humidity % | barometer mb |
| 20260507163459 | 78 | 216 | 4.0 | 7.0 | 0.00 | 0.00 | 0.00 | 69 | 1010.3 |
| 20260507162956 | 78 | 203 | 5.0 | 6.0 | 0.00 | 0.00 | 0.00 | 66 | 1010.6 |
| 20260507162451 | 78 | 202 | 3.0 | 5.0 | 0.00 | 0.00 | 0.00 | 65 | 1011.1 |
| 20260507161948 | 78 | 210 | 0.0 | 0.0 | 0.00 | 0.00 | 0.00 | 64 | 1010.8 |
| 20260507161445 | 78 | 208 | 3.0 | 5.0 | 0.00 | 0.00 | 0.00 | 65 | 1010.9 |
| 20260507160942 | 78 | 218 | 3.0 | 3.0 | 0.00 | 0.00 | 0.00 | 66 | 1011.1 |
| 20260507160438 | 78 | 197 | 1.0 | 3.0 | 0.00 | 0.00 | 0.00 | 69 | 1011.4 |
| 20260507155933 | 78 | 195 | 0.0 | 1.0 | 0.00 | 0.00 | 0.00 | 70 | 1011.4 |
| 20260507155430 | 78 | 198 | 1.0 | 1.0 | 0.00 | 0.00 | 0.00 | 71 | 1011.4 |
| 20260507154927 | 77 | 199 | 1.0 | 2.0 | 0.00 | 0.00 | 0.00 | 72 | 1011.4 |
| 20260507154423 | 77 | 198 | 0.0 | 0.0 | 0.00 | 0.00 | 0.00 | 75 | 1011.2 |
| 20260507153921 | 76 | 212 | 1.0 | 1.0 | 0.00 | 0.00 | 0.00 | 76 | 1011.5 |
| 20260507153417 | 76 | 211 | 0.0 | 0.0 | 0.00 | 0.00 | 0.00 | 76 | 1011.7 |
| 20260507152914 | 76 | 217 | 3.0 | 5.0 | 0.00 | 0.00 | 0.00 | 77 | 1011.2 |
| 20260507152410 | 76 | 205 | 3.0 | 5.0 | 0.00 | 0.00 | 0.00 | 77 | 1010.7 |
| 20260507151906 | 75 | 210 | 3.0 | 5.0 | 0.00 | 0.00 | 0.00 | 76 | 1010.5 |
| 20260507151403 | 75 | 210 | 3.0 | 3.0 | 0.00 | 0.00 | 0.00 | 77 | 1010.8 |
| 20260507150900 | 74 | 202 | 3.0 | 3.0 | 0.00 | 0.00 | 0.00 | 79 | 1010.9 |
| 20260507150356 | 73 | 211 | 4.0 | 5.0 | 0.00 | 0.00 | 0.00 | 80 | 1010.7 |
| 20260507145853 | 73 | 187 | 0.0 | 1.0 | 0.00 | 0.00 | 0.00 | 80 | 1010.6 |
| 20260507145349 | 73 | 209 | 0.0 | 0.0 | 0.00 | 0.00 | 0.00 | 80 | 1010.6 |
| 20260507144846 | 73 | 205 | 2.0 | 2.0 | 0.00 | 0.00 | 0.00 | 79 | 1010.5 |
| 20260507144343 | 73 | 209 | 0.0 | 0.0 | 0.00 | 0.00 | 0.00 | 78 | 1010.6 |
| 20260507143840 | 73 | 200 | 2.0 | 2.0 | 0.00 | 0.00 | 0.00 | 78 | 1010.8 |
| 20260507143337 | 73 | 186 | 0.0 | 0.0 | 0.00 | 0.00 | 0.00 | 79 | 1010.7 |
| 20260507142833 | 73 | 186 | 0.0 | 0.0 | 0.00 | 0.00 | 0.00 | 79 | 1010.9 |
| 20260507142330 | 73 | 190 | 2.0 | 2.0 | 0.00 | 0.00 | 0.00 | 80 | 1010.9 |
| 20260507141826 | 72 | 205 | 2.0 | 2.0 | 0.00 | 0.00 | 0.00 | 82 | 1011.8 |
| 20260507141323 | 72 | 201 | 4.0 | 5.0 | 0.00 | 0.00 | 0.00 | 83 | 1011.7 |
| 20260507140819 | 72 | 214 | 3.0 | 3.0 | 0.00 | 0.00 | 0.00 | 84 | 1011.5 |
| 20260507140316 | 72 | 205 | 4.0 | 5.0 | 0.00 | 0.00 | 0.00 | 84 | 1011.7 |
| 20260507135814 | 72 | 214 | 3.0 | 3.0 | 0.00 | 0.00 | 0.00 | 85 | 1011.7 |
| 20260507135311 | 72 | 201 | 2.0 | 2.0 | 0.00 | 0.00 | 0.00 | 85 | 1011.8 |
| 20260507134808 | 72 | 204 | 2.0 | 3.0 | 0.00 | 0.00 | 0.00 | 85 | 1011.5 |
| 20260507134304 | 72 | 213 | 0.0 | 0.0 | 0.00 | 0.00 | 0.00 | 85 | 1010.7 |
| 20260507133800 | 71 | 210 | 3.0 | 5.0 | 0.00 | 0.00 | 0.00 | 86 | 1010.6 |
| 20260507133256 | 71 | 210 | 0.0 | 0.0 | 0.00 | 0.00 | 0.00 | 86 | 1010.6 |
| 20260507132754 | 71 | 211 | 0.0 | 0.0 | 0.00 | 0.00 | 0.00 | 86 | 1010.4 |
| 20260507132251 | 71 | 205 | 0.0 | 0.0 | 0.00 | 0.00 | 0.00 | 85 | 1010.4 |
| 20260507131748 | 71 | 214 | 0.0 | 0.0 | 0.00 | 0.00 | 0.00 | 85 | 1010.0 |
| 20260507131244 | 71 | 216 | 0.0 | 0.0 | 0.00 | 0.00 | 0.00 | 86 | 1010.2 |
| 20260507130741 | 71 | 216 | 1.0 | 2.0 | 0.00 | 0.00 | 0.00 | 87 | 1010.3 |
| 20260507130239 | 71 | 217 | 0.0 | 0.0 | 0.00 | 0.00 | 0.00 | 88 | 1010.2 |
| 20260507125738 | 70 | 217 | 0.0 | 0.0 | 0.00 | 0.00 | 0.00 | 89 | 1010.2 |
| 20260507125235 | 70 | 217 | 0.0 | 0.0 | 0.00 | 0.00 | 0.00 | 89 | 1010.3 |
| 20260507124731 | 70 | 217 | 0.0 | 0.0 | 0.00 | 0.00 | 0.00 | 89 | 1010.6 |
| 20260507124228 | 70 | 217 | 0.0 | 0.0 | 0.00 | 0.00 | 0.00 | 90 | 1011.0 |
| 20260507123727 | 71 | 217 | 0.0 | 0.0 | 0.00 | 0.00 | 0.00 | 90 | 1011.1 |
| 20260507123224 | 71 | 217 | 0.0 | 0.0 | 0.00 | 0.00 | 0.00 | 90 | 1011.1 |
| 20260507122719 | 71 | 211 | 0.0 | 0.0 | 0.00 | 0.00 | 0.00 | 90 | 1010.6 |
| 20260507122215 | 71 | 210 | 0.0 | 0.0 | 0.00 | 0.00 | 0.00 | 90 | 1011.2 |
| 20260507121711 | 71 | 209 | 0.0 | 0.0 | 0.00 | 0.00 | 0.00 | 90 | 1011.6 |
| 20260507121207 | 71 | 209 | 0.0 | 0.0 | 0.00 | 0.00 | 0.00 | 90 | 1011.5 |
| 20260507120703 | 71 | 205 | 0.0 | 0.0 | 0.00 | 0.00 | 0.00 | 91 | 1011.9 |
| 20260507120200 | 71 | 211 | 0.0 | 0.0 | 0.00 | 0.00 | 0.00 | 91 | 1011.7 |
| 20260507115656 | 71 | 216 | 0.0 | 0.0 | 0.00 | 0.00 | 0.00 | 90 | 1011.9 |
| 20260507115152 | 72 | 216 | 0.0 | 0.0 | 0.00 | 0.00 | 0.00 | 90 | 1011.8 |
| 20260507114648 | 72 | 216 | 0.0 | 0.0 | 0.00 | 0.00 | 0.00 | 90 | 1012.0 |
| 20260507114146 | 72 | 216 | 0.0 | 0.0 | 0.00 | 0.00 | 0.00 | 90 | 1012.1 |
| 20260507113643 | 72 | 216 | 0.0 | 0.0 | 0.00 | 0.00 | 0.00 | 91 | 1012.1 |
| 20260507113140 | 72 | 216 | 0.0 | 0.0 | 0.00 | 0.00 | 0.00 | 90 | 1012.5 |
| 20260507112638 | 72 | 217 | 0.0 | 0.0 | 0.00 | 0.00 | 0.00 | 90 | 1012.3 |
| 20260507112134 | 72 | 210 | 0.0 | 0.0 | 0.00 | 0.00 | 0.00 | 90 | 1012.0 |
| 20260507111631 | 72 | 210 | 0.0 | 0.0 | 0.00 | 0.00 | 0.00 | 90 | 1012.3 |
| 20260507111128 | 72 | 210 | 0.0 | 0.0 | 0.00 | 0.00 | 0.00 | 90 | 1012.5 |
| 20260507110624 | 72 | 210 | 0.0 | 0.0 | 0.00 | 0.00 | 0.00 | 89 | 1012.7 |
| 20260507110121 | 72 | 204 | 0.0 | 0.0 | 0.00 | 0.00 | 0.00 | 90 | 1012.9 |
| 20260507105618 | 72 | 209 | 0.0 | 0.0 | 0.00 | 0.00 | 0.00 | 90 | 1012.7 |
| 20260507105113 | 72 | 210 | 0.0 | 0.0 | 0.00 | 0.00 | 0.00 | 90 | 1012.5 |
| 20260507104611 | 72 | 210 | 0.0 | 0.0 | 0.00 | 0.00 | 0.00 | 90 | 1012.5 |
| 20260507104107 | 72 | 209 | 0.0 | 0.0 | 0.00 | 0.00 | 0.00 | 90 | 1012.9 |
| 20260507103604 | 72 | 209 | 0.0 | 0.0 | 0.00 | 0.00 | 0.00 | 90 | 1012.6 |
| 20260507103100 | 72 | 209 | 0.0 | 0.0 | 0.00 | 0.00 | 0.00 | 90 | 1012.7 |
| 20260507102557 | 72 | 210 | 0.0 | 0.0 | 0.00 | 0.00 | 0.00 | 90 | 1012.8 |
| 20260507102053 | 73 | 211 | 0.0 | 0.0 | 0.00 | 0.00 | 0.00 | 90 | 1012.7 |
| 20260507101548 | 73 | 209 | 0.0 | 0.0 | 0.00 | 0.00 | 0.00 | 89 | 1012.7 |
| 20260507101045 | 73 | 213 | 2.0 | 2.0 | 0.00 | 0.00 | 0.00 | 88 | 1013.1 |
| 20260507100543 | 73 | 209 | 0.0 | 0.0 | 0.00 | 0.00 | 0.00 | 88 | 1013.1 |
| 20260507100041 | 73 | 218 | 0.0 | 0.0 | 0.00 | 0.00 | 0.00 | 87 | 1013.3 |
| 20260507095538 | 73 | 216 | 0.0 | 0.0 | 0.00 | 0.00 | 0.00 | 87 | 1013.3 |
| 20260507095035 | 73 | 216 | 0.0 | 0.0 | 0.00 | 0.00 | 0.00 | 87 | 1012.9 |
| 20260507094531 | 73 | 216 | 0.0 | 0.0 | 0.00 | 0.00 | 0.00 | 87 | 1012.6 |
| 20260507094028 | 74 | 213 | 2.0 | 2.0 | 0.00 | 0.00 | 0.00 | 86 | 1012.7 |
| 20260507093526 | 74 | 209 | 3.0 | 3.0 | 0.00 | 0.00 | 0.00 | 86 | 1012.6 |
| 20260507093024 | 74 | 206 | 3.0 | 3.0 | 0.00 | 0.00 | 0.00 | 85 | 1012.6 |
| 20260507092520 | 73 | 209 | 3.0 | 3.0 | 0.00 | 0.00 | 0.00 | 86 | 1012.4 |
| 20260507092017 | 73 | 210 | 3.0 | 3.0 | 0.00 | 0.00 | 0.00 | 86 | 1012.4 |
| 20260507091514 | 73 | 217 | 1.0 | 2.0 | 0.00 | 0.00 | 0.00 | 86 | 1012.5 |
| 20260507091010 | 73 | 218 | 0.0 | 0.0 | 0.00 | 0.00 | 0.00 | 86 | 1012.5 |
| 20260507090506 | 73 | 194 | 0.0 | 0.0 | 0.00 | 0.00 | 0.00 | 86 | 1012.3 |
| 20260507090003 | 73 | 196 | 0.0 | 0.0 | 0.00 | 0.00 | 0.00 | 87 | 1012.3 |
| 20260507085500 | 73 | 201 | 0.0 | 0.0 | 0.00 | 0.00 | 0.00 | 87 | 1012.1 |
| 20260507084956 | 73 | 200 | 0.0 | 0.0 | 0.00 | 0.00 | 0.00 | 87 | 1012.3 |
| 20260507084453 | 73 | 192 | 0.0 | 0.0 | 0.00 | 0.00 | 0.00 | 87 | 1012.3 |
| 20260507083950 | 73 | 185 | 0.0 | 0.0 | 0.00 | 0.00 | 0.00 | 87 | 1012.1 |
| 20260507083446 | 73 | 201 | 0.0 | 0.0 | 0.00 | 0.00 | 0.00 | 87 | 1011.9 |
| 20260507082943 | 73 | 195 | 0.0 | 0.0 | 0.00 | 0.00 | 0.00 | 88 | 1011.9 |
| 20260507082439 | 73 | 211 | 0.0 | 0.0 | 0.00 | 0.00 | 0.00 | 88 | 1011.6 |
| 20260507081935 | 73 | 185 | 0.0 | 0.0 | 0.00 | 0.00 | 0.00 | 88 | 1011.9 |
| 20260507081432 | 73 | 196 | 2.0 | 3.0 | 0.00 | 0.00 | 0.00 | 89 | 1011.4 |
| 20260507080929 | 73 | 214 | 1.0 | 3.0 | 0.00 | 0.00 | 0.00 | 89 | 1011.5 |
| 20260507080425 | 73 | 205 | 0.0 | 0.0 | 0.00 | 0.00 | 0.00 | 90 | 1011.8 |
| 20260507075920 | 73 | 196 | 0.0 | 0.0 | 0.00 | 0.00 | 0.00 | 90 | 1011.5 |
| 20260507075417 | 73 | 196 | 0.0 | 0.0 | 0.00 | 0.00 | 0.00 | 90 | 1011.5 |
| 20260507074914 | 73 | 220 | 2.0 | 3.0 | 0.00 | 0.00 | 0.00 | 91 | 1011.8 |
| 20260507074410 | 73 | 210 | 0.0 | 0.0 | 0.00 | 0.00 | 0.00 | 91 | 1011.1 |
| 20260507073908 | 73 | 198 | 2.0 | 2.0 | 0.00 | 0.00 | 0.00 | 91 | 1011.3 |
| 20260507073404 | 73 | 198 | 0.0 | 0.0 | 0.00 | 0.00 | 0.00 | 91 | 1011.1 |
| 20260507072901 | 73 | 196 | 0.0 | 0.0 | 0.00 | 0.00 | 0.00 | 91 | 1010.9 |
| 20260507072359 | 73 | 203 | 0.0 | 0.0 | 0.00 | 0.00 | 0.00 | 91 | 1010.7 |
| 20260507071856 | 73 | 214 | 0.0 | 0.0 | 0.00 | 0.00 | 0.00 | 90 | 1010.9 |
| 20260507071353 | 73 | 199 | 0.0 | 0.0 | 0.00 | 0.00 | 0.00 | 90 | 1011.2 |
| 20260507070849 | 73 | 206 | 0.0 | 0.0 | 0.00 | 0.00 | 0.00 | 90 | 1011.6 |
| 20260507070347 | 73 | 210 | 0.0 | 0.0 | 0.00 | 0.00 | 0.00 | 90 | 1011.7 |
| 20260507065844 | 73 | 213 | 0.0 | 1.0 | 0.00 | 0.00 | 0.00 | 90 | 1011.8 |
| 20260507065340 | 73 | 195 | 2.0 | 2.0 | 0.00 | 0.00 | 0.00 | 90 | 1011.8 |
| 20260507064837 | 73 | 191 | 2.0 | 2.0 | 0.00 | 0.00 | 0.00 | 90 | 1011.9 |
| 20260507064336 | 73 | 206 | 0.0 | 0.0 | 0.00 | 0.00 | 0.00 | 90 | 1012.0 |
| 20260507063833 | 73 | 211 | 3.0 | 5.0 | 0.00 | 0.00 | 0.00 | 90 | 1012.1 |
| 20260507063330 | 73 | 211 | 3.0 | 5.0 | 0.00 | 0.00 | 0.00 | 90 | 1012.1 |
| 20260507062827 | 73 | 203 | 2.0 | 2.0 | 0.00 | 0.00 | 0.00 | 90 | 1012.2 |
| 20260507062324 | 73 | 201 | 0.0 | 0.0 | 0.00 | 0.00 | 0.00 | 90 | 1012.3 |
| 20260507061822 | 73 | 197 | 0.0 | 0.0 | 0.00 | 0.00 | 0.00 | 90 | 1012.4 |
| 20260507061319 | 74 | 208 | 0.0 | 0.0 | 0.00 | 0.00 | 0.00 | 89 | 1012.5 |
| 20260507060818 | 74 | 187 | 0.0 | 0.0 | 0.00 | 0.00 | 0.00 | 89 | 1012.7 |
| 20260507060314 | 74 | 171 | 0.0 | 0.0 | 0.00 | 0.00 | 0.00 | 89 | 1012.8 |
| 20260507055811 | 74 | 204 | 3.0 | 5.0 | 0.00 | 0.00 | 0.00 | 89 | 1012.8 |
| 20260507055306 | 74 | 212 | 3.0 | 3.0 | 0.00 | 0.00 | 0.00 | 89 | 1012.9 |
| 20260507054803 | 74 | 204 | 3.0 | 3.0 | 0.00 | 0.00 | 0.00 | 89 | 1013.0 |
| 20260507054259 | 74 | 211 | 0.0 | 0.0 | 0.00 | 0.00 | 0.00 | 89 | 1013.3 |
| 20260507053756 | 74 | 202 | 2.0 | 3.0 | 0.00 | 0.00 | 0.00 | 89 | 1013.3 |
| 20260507053254 | 74 | 204 | 1.0 | 2.0 | 0.00 | 0.00 | 0.00 | 88 | 1013.8 |
| 20260507052753 | 74 | 198 | 0.0 | 0.0 | 0.00 | 0.00 | 0.00 | 88 | 1013.5 |
| 20260507052249 | 74 | 209 | 1.0 | 2.0 | 0.00 | 0.00 | 0.00 | 88 | 1013.5 |
| 20260507051747 | 74 | 203 | 3.0 | 3.0 | 0.00 | 0.00 | 0.00 | 88 | 1013.1 |
| 20260507051243 | 74 | 209 | 3.0 | 3.0 | 0.00 | 0.00 | 0.00 | 88 | 1012.9 |
| 20260507050740 | 74 | 203 | 1.0 | 2.0 | 0.00 | 0.00 | 0.00 | 88 | 1013.3 |
| 20260507050237 | 74 | 220 | 0.0 | 2.0 | 0.00 | 0.00 | 0.00 | 88 | 1013.6 |
| 20260507045734 | 74 | 204 | 0.0 | 0.0 | 0.00 | 0.00 | 0.00 | 88 | 1013.6 |
| 20260507045230 | 74 | 218 | 1.0 | 3.0 | 0.00 | 0.00 | 0.00 | 89 | 1013.7 |
| 20260507044727 | 74 | 213 | 0.0 | 0.0 | 0.00 | 0.00 | 0.00 | 90 | 1013.6 |
| 20260507044224 | 74 | 210 | 0.0 | 0.0 | 0.00 | 0.00 | 0.00 | 90 | 1013.3 |
| 20260507043720 | 74 | 199 | 0.0 | 0.0 | 0.00 | 0.00 | 0.00 | 90 | 1013.3 |
| 20260507043217 | 74 | 188 | 1.0 | 2.0 | 0.00 | 0.00 | 0.00 | 90 | 1013.4 |
| 20260507042714 | 73 | 210 | 1.0 | 2.0 | 0.00 | 0.00 | 0.00 | 91 | 1013.5 |
| 20260507042208 | 73 | 218 | 0.0 | 0.0 | 0.00 | 0.00 | 0.00 | 91 | 1013.5 |
| 20260507041706 | 73 | 213 | 0.0 | 0.0 | 0.00 | 0.00 | 0.00 | 91 | 1013.3 |
| 20260507041202 | 73 | 213 | 0.0 | 0.0 | 0.00 | 0.00 | 0.00 | 91 | 1013.4 |
| 20260507040659 | 74 | 198 | 0.0 | 0.0 | 0.00 | 0.00 | 0.00 | 91 | 1013.4 |
| 20260507040155 | 74 | 195 | 0.0 | 0.0 | 0.00 | 0.00 | 0.00 | 90 | 1013.8 |
| 20260507035652 | 74 | 192 | 0.0 | 0.0 | 0.00 | 0.00 | 0.00 | 90 | 1013.6 |
| 20260507035148 | 74 | 218 | 2.0 | 2.0 | 0.00 | 0.00 | 0.00 | 90 | 1013.4 |
| 20260507034645 | 74 | 211 | 3.0 | 5.0 | 0.00 | 0.00 | 0.00 | 89 | 1013.2 |
| 20260507034142 | 74 | 205 | 2.0 | 5.0 | 0.00 | 0.00 | 0.00 | 89 | 1013.2 |
| 20260507033641 | 74 | 201 | 3.0 | 3.0 | 0.00 | 0.00 | 0.00 | 89 | 1013.3 |
| 20260507033137 | 74 | 213 | 0.0 | 0.0 | 0.00 | 0.00 | 0.00 | 89 | 1012.9 |
| 20260507032635 | 74 | 212 | 2.0 | 2.0 | 0.00 | 0.00 | 0.00 | 89 | 1013.1 |
| 20260507032130 | 74 | 205 | 2.0 | 2.0 | 0.00 | 0.00 | 0.00 | 88 | 1013.2 |
| 20260507031627 | 74 | 199 | 0.0 | 0.0 | 0.00 | 0.00 | 0.00 | 88 | 1013.2 |
| 20260507031124 | 74 | 196 | 0.0 | 2.0 | 0.00 | 0.00 | 0.00 | 89 | 1013.2 |
| 20260507030621 | 74 | 214 | 0.0 | 0.0 | 0.00 | 0.00 | 0.00 | 89 | 1012.9 |
| 20260507030119 | 74 | 213 | 1.0 | 1.0 | 0.00 | 0.00 | 0.00 | 89 | 1012.9 |
| 20260507025616 | 74 | 212 | 0.0 | 0.0 | 0.00 | 0.00 | 0.00 | 90 | 1013.1 |
| 20260507025113 | 74 | 213 | 1.0 | 2.0 | 0.00 | 0.00 | 0.00 | 90 | 1013.3 |
| 20260507024611 | 74 | 207 | 2.0 | 2.0 | 0.00 | 0.00 | 0.00 | 90 | 1013.5 |
| 20260507024108 | 74 | 205 | 1.0 | 1.0 | 0.00 | 0.00 | 0.00 | 90 | 1013.1 |
| 20260507023603 | 74 | 205 | 2.0 | 3.0 | 0.00 | 0.00 | 0.00 | 90 | 1013.0 |
| 20260507023101 | 74 | 197 | 2.0 | 2.0 | 0.00 | 0.00 | 0.00 | 90 | 1012.6 |
| 20260507022557 | 74 | 205 | 0.0 | 0.0 | 0.00 | 0.00 | 0.00 | 90 | 1012.8 |
| 20260507022053 | 74 | 206 | 1.0 | 2.0 | 0.00 | 0.00 | 0.00 | 90 | 1013.0 |
| 20260507021549 | 74 | 200 | 0.0 | 1.0 | 0.00 | 0.00 | 0.00 | 90 | 1012.9 |
| 20260507021045 | 73 | 213 | 2.0 | 3.0 | 0.00 | 0.00 | 0.00 | 90 | 1013.1 |
| 20260507020543 | 73 | 202 | 2.0 | 3.0 | 0.00 | 0.00 | 0.00 | 90 | 1013.6 |
| 20260507020039 | 73 | 196 | 1.0 | 2.0 | 0.00 | 0.00 | 0.00 | 90 | 1013.5 |
| 20260507015538 | 73 | 219 | 5.0 | 6.0 | 0.00 | 0.00 | 0.00 | 90 | 1013.4 |
| 20260507015035 | 73 | 208 | 2.0 | 2.0 | 0.00 | 0.00 | 0.00 | 90 | 1013.5 |
| 20260507014531 | 73 | 196 | 0.0 | 1.0 | 0.00 | 0.00 | 0.00 | 90 | 1013.7 |
| 20260507014027 | 73 | 213 | 2.0 | 3.0 | 0.00 | 0.00 | 0.00 | 90 | 1013.8 |
| 20260507013524 | 73 | 214 | 1.0 | 2.0 | 0.00 | 0.00 | 0.00 | 90 | 1013.7 |
| 20260507013021 | 73 | 202 | 0.0 | 0.0 | 0.00 | 0.00 | 0.00 | 90 | 1013.6 |
| 20260507012518 | 73 | 201 | 0.0 | 0.0 | 0.00 | 0.00 | 0.00 | 89 | 1013.5 |
| 20260507012015 | 73 | 198 | 0.0 | 0.0 | 0.00 | 0.00 | 0.00 | 89 | 1013.7 |
| 20260507011512 | 73 | 206 | 0.0 | 0.0 | 0.00 | 0.00 | 0.00 | 89 | 1013.7 |
| 20260507011008 | 73 | 201 | 0.0 | 0.0 | 0.00 | 0.00 | 0.00 | 89 | 1014.0 |
| 20260507010503 | 73 | 191 | 3.0 | 3.0 | 0.00 | 0.00 | 0.00 | 89 | 1013.9 |
| 20260507005959 | 74 | 214 | 0.0 | 0.0 | 0.00 | 0.00 | 0.00 | 89 | 1013.9 |
| 20260507005457 | 74 | 214 | 0.0 | 0.0 | 0.00 | 0.00 | 0.00 | 89 | 1013.8 |
| 20260507004953 | 74 | 213 | 0.0 | 0.0 | 0.00 | 0.00 | 0.00 | 88 | 1013.8 |
| 20260507004450 | 73 | 216 | 0.0 | 0.0 | 0.00 | 0.00 | 0.00 | 88 | 1013.5 |
| 20260507003948 | 73 | 213 | 0.0 | 0.0 | 0.00 | 0.00 | 0.00 | 89 | 1013.6 |
| 20260507003443 | 73 | 212 | 0.0 | 0.0 | 0.00 | 0.00 | 0.00 | 88 | 1014.0 |
| 20260507002938 | 73 | 212 | 0.0 | 0.0 | 0.00 | 0.00 | 0.00 | 88 | 1013.6 |
| 20260507002435 | 73 | 202 | 2.0 | 3.0 | 0.00 | 0.00 | 0.00 | 88 | 1013.8 |
| 20260507001932 | 73 | 192 | 0.0 | 0.0 | 0.00 | 0.00 | 0.00 | 88 | 1013.8 |
| 20260507001428 | 73 | 210 | 0.0 | 0.0 | 0.00 | 0.00 | 0.00 | 88 | 1013.6 |
| 20260507000926 | 73 | 210 | 0.0 | 0.0 | 0.00 | 0.00 | 0.00 | 88 | 1014.0 |
| 20260507000421 | 73 | 202 | 0.0 | 1.0 | 0.00 | 0.00 | 0.00 | 88 | 1013.8 |
| 20260506235917 | 74 | 211 | 1.0 | 2.0 | 0.00 | 0.00 | 0.00 | 88 | 1013.9 |
| 20260506235415 | 74 | 210 | 1.0 | 1.0 | 0.00 | 0.00 | 0.00 | 88 | 1013.9 |
| 20260506234910 | 74 | 202 | 0.0 | 0.0 | 0.00 | 0.00 | 0.00 | 87 | 1013.9 |
| 20260506234408 | 74 | 216 | 1.0 | 2.0 | 0.00 | 0.00 | 0.00 | 87 | 1014.0 |
| 20260506233906 | 74 | 214 | 1.0 | 1.0 | 0.00 | 0.00 | 0.00 | 86 | 1013.8 |
| 20260506233401 | 74 | 216 | 0.0 | 0.0 | 0.00 | 0.00 | 0.00 | 86 | 1013.8 |
| 20260506232858 | 74 | 214 | 2.0 | 2.0 | 0.00 | 0.00 | 0.00 | 85 | 1013.6 |
| 20260506232354 | 74 | 214 | 1.0 | 1.0 | 0.00 | 0.00 | 0.00 | 85 | 1013.8 |
| 20260506231850 | 74 | 199 | 3.0 | 3.0 | 0.00 | 0.00 | 0.00 | 84 | 1013.7 |
| 20260506231348 | 74 | 203 | 2.0 | 3.0 | 0.00 | 0.00 | 0.00 | 85 | 1013.7 |
| 20260506230845 | 74 | 213 | 2.0 | 2.0 | 0.00 | 0.00 | 0.00 | 84 | 1013.7 |
| 20260506230342 | 75 | 214 | 2.0 | 2.0 | 0.00 | 0.00 | 0.00 | 84 | 1013.7 |
| 20260506225838 | 75 | 211 | 1.0 | 1.0 | 0.00 | 0.00 | 0.00 | 83 | 1013.8 |
| 20260506225336 | 75 | 211 | 2.0 | 2.0 | 0.00 | 0.00 | 0.00 | 83 | 1013.8 |
| 20260506224833 | 75 | 214 | 2.0 | 2.0 | 0.00 | 0.00 | 0.00 | 82 | 1013.5 |
| 20260506224330 | 75 | 217 | 4.0 | 5.0 | 0.00 | 0.00 | 0.00 | 82 | 1013.7 |
| 20260506223826 | 75 | 215 | 2.0 | 2.0 | 0.00 | 0.00 | 0.00 | 81 | 1013.5 |
| 20260506223321 | 75 | 201 | 3.0 | 5.0 | 0.00 | 0.00 | 0.00 | 81 | 1013.2 |
| 20260506222819 | 76 | 200 | 1.0 | 3.0 | 0.00 | 0.00 | 0.00 | 80 | 1013.6 |
| 20260506222313 | 76 | 203 | 3.0 | 5.0 | 0.00 | 0.00 | 0.00 | 79 | 1013.6 |
| 20260506221807 | 76 | 228 | 2.0 | 3.0 | 0.00 | 0.00 | 0.00 | 78 | 1013.7 |
| 20260506221304 | 76 | 199 | 2.0 | 3.0 | 0.00 | 0.00 | 0.00 | 78 | 1013.6 |
| 20260506220801 | 76 | 210 | 3.0 | 3.0 | 0.00 | 0.00 | 0.00 | 76 | 1013.4 |
| 20260506220256 | 77 | 215 | 3.0 | 5.0 | 0.00 | 0.00 | 0.00 | 76 | 1013.4 |
| 20260506215753 | 77 | 210 | 2.0 | 2.0 | 0.00 | 0.00 | 0.00 | 77 | 1013.5 |
| 20260506215248 | 77 | 199 | 3.0 | 3.0 | 0.00 | 0.00 | 0.00 | 77 | 1013.7 |
| 20260506214745 | 77 | 210 | 2.0 | 2.0 | 0.00 | 0.00 | 0.00 | 76 | 1013.7 |
| 20260506214242 | 77 | 217 | 2.0 | 2.0 | 0.00 | 0.00 | 0.00 | 77 | 1013.5 |
| 20260506213741 | 77 | 210 | 4.0 | 5.0 | 0.00 | 0.00 | 0.00 | 76 | 1013.8 |
| 20260506213237 | 78 | 214 | 4.0 | 6.0 | 0.00 | 0.00 | 0.00 | 75 | 1014.0 |
| 20260506212735 | 77 | 200 | 2.0 | 2.0 | 0.00 | 0.00 | 0.00 | 77 | 1013.7 |
| 20260506212230 | 77 | 217 | 4.0 | 5.0 | 0.00 | 0.00 | 0.00 | 75 | 1013.9 |
| 20260506211725 | 78 | 211 | 3.0 | 5.0 | 0.00 | 0.00 | 0.00 | 76 | 1013.8 |
| 20260506211222 | 78 | 200 | 3.0 | 5.0 | 0.00 | 0.00 | 0.00 | 76 | 1013.9 |
| 20260506210719 | 78 | 201 | 4.0 | 6.0 | 0.00 | 0.00 | 0.00 | 75 | 1013.9 |
| 20260506210216 | 78 | 210 | 2.0 | 3.0 | 0.00 | 0.00 | 0.00 | 75 | 1014.0 |
| 20260506205713 | 79 | 209 | 4.0 | 6.0 | 0.00 | 0.00 | 0.00 | 74 | 1014.1 |
| 20260506205208 | 78 | 193 | 3.0 | 5.0 | 0.00 | 0.00 | 0.00 | 75 | 1013.9 |
| 20260506204706 | 78 | 211 | 2.0 | 3.0 | 0.00 | 0.00 | 0.00 | 75 | 1014.0 |
| 20260506204203 | 78 | 198 | 3.0 | 7.0 | 0.00 | 0.00 | 0.00 | 75 | 1014.0 |
| 20260506203701 | 78 | 205 | 3.0 | 5.0 | 0.00 | 0.00 | 0.00 | 75 | 1014.2 |
| 20260506203157 | 79 | 210 | 3.0 | 5.0 | 0.00 | 0.00 | 0.00 | 73 | 1014.1 |
| 20260506202655 | 78 | 208 | 2.0 | 5.0 | 0.00 | 0.00 | 0.00 | 74 | 1014.3 |
| 20260506202151 | 78 | 217 | 4.0 | 5.0 | 0.00 | 0.00 | 0.00 | 74 | 1014.3 |
| 20260506201648 | 78 | 199 | 0.0 | 2.0 | 0.00 | 0.00 | 0.00 | 74 | 1014.3 |
| 20260506201144 | 78 | 227 | 4.0 | 6.0 | 0.00 | 0.00 | 0.00 | 73 | 1014.4 |
| 20260506200641 | 78 | 179 | 3.0 | 5.0 | 0.00 | 0.00 | 0.00 | 74 | 1014.5 |
| 20260506200138 | 78 | 174 | 4.0 | 5.0 | 0.00 | 0.00 | 0.00 | 73 | 1014.2 |
| 20260506195635 | 78 | 221 | 4.0 | 6.0 | 0.00 | 0.00 | 0.00 | 74 | 1014.6 |
| 20260506195131 | 78 | 223 | 4.0 | 6.0 | 0.00 | 0.00 | 0.00 | 73 | 1014.6 |
| 20260506194629 | 79 | 193 | 0.0 | 0.0 | 0.00 | 0.00 | 0.00 | 72 | 1014.7 |
| 20260506194125 | 80 | 200 | 4.0 | 5.0 | 0.00 | 0.00 | 0.00 | 71 | 1014.4 |
| 20260506193623 | 80 | 222 | 3.0 | 5.0 | 0.00 | 0.00 | 0.00 | 70 | 1014.6 |
| 20260506193120 | 79 | 205 | 0.0 | 0.0 | 0.00 | 0.00 | 0.00 | 73 | 1014.6 |
| 20260506192617 | 79 | 210 | 2.0 | 3.0 | 0.00 | 0.00 | 0.00 | 72 | 1014.7 |
| 20260506192112 | 80 | 205 | 0.0 | 3.0 | 0.00 | 0.00 | 0.00 | 72 | 1014.9 |
| 20260506191609 | 81 | 215 | 3.0 | 5.0 | 0.00 | 0.00 | 0.00 | 69 | 1014.7 |
| 20260506191105 | 80 | 199 | 0.0 | 0.0 | 0.00 | 0.00 | 0.00 | 73 | 1015.0 |
| 20260506190603 | 80 | 212 | 4.0 | 5.0 | 0.00 | 0.00 | 0.00 | 71 | 1015.1 |
| 20260506190059 | 82 | 210 | 0.0 | 0.0 | 0.00 | 0.00 | 0.00 | 69 | 1015.2 |
| 20260506185557 | 80 | 211 | 2.0 | 2.0 | 0.00 | 0.00 | 0.00 | 72 | 1015.4 |
| 20260506185053 | 80 | 208 | 0.0 | 0.0 | 0.00 | 0.00 | 0.00 | 71 | 1015.5 |
| 20260506184551 | 79 | 190 | 0.0 | 1.0 | 0.00 | 0.00 | 0.00 | 73 | 1015.5 |
| 20260506184048 | 80 | 195 | 0.0 | 0.0 | 0.00 | 0.00 | 0.00 | 72 | 1015.7 |
| 20260506183543 | 80 | 214 | 3.0 | 3.0 | 0.00 | 0.00 | 0.00 | 70 | 1015.6 |
| 20260506183040 | 81 | 192 | 2.0 | 2.0 | 0.00 | 0.00 | 0.00 | 70 | 1015.6 |
| 20260506182538 | 81 | 212 | 3.0 | 5.0 | 0.00 | 0.00 | 0.00 | 71 | 1015.8 |
| 20260506182035 | 80 | 198 | 4.0 | 6.0 | 0.00 | 0.00 | 0.00 | 72 | 1015.7 |
| 20260506181533 | 79 | 210 | 2.0 | 2.0 | 0.00 | 0.00 | 0.00 | 75 | 1015.6 |
| 20260506181029 | 79 | 209 | 0.0 | 0.0 | 0.00 | 0.00 | 0.00 | 76 | 1015.8 |
| 20260506180526 | 79 | 210 | 1.0 | 2.0 | 0.00 | 0.00 | 0.00 | 75 | 1015.9 |
| 20260506180022 | 79 | 198 | 2.0 | 3.0 | 0.00 | 0.00 | 0.00 | 74 | 1015.7 |
| 20260506175519 | 78 | 219 | 2.0 | 3.0 | 0.00 | 0.00 | 0.00 | 76 | 1015.9 |
| 20260506175015 | 78 | 218 | 0.0 | 0.0 | 0.00 | 0.00 | 0.00 | 75 | 1016.0 |
| 20260506174514 | 78 | 220 | 3.0 | 3.0 | 0.00 | 0.00 | 0.00 | 75 | 1016.0 |
| 20260506174010 | 77 | 205 | 0.0 | 0.0 | 0.00 | 0.00 | 0.00 | 76 | 1016.4 |
| 20260506173508 | 76 | 225 | 1.0 | 1.0 | 0.00 | 0.00 | 0.00 | 79 | 1016.2 |
| 20260506173004 | 76 | 217 | 3.0 | 5.0 | 0.00 | 0.00 | 0.00 | 78 | 1016.1 |
| 20260506172502 | 76 | 189 | 4.0 | 6.0 | 0.00 | 0.00 | 0.00 | 78 | 1016.1 |
| 20260506171958 | 77 | 232 | 4.0 | 6.0 | 0.00 | 0.00 | 0.00 | 76 | 1016.3 |
| 20260506171455 | 77 | 219 | 4.0 | 6.0 | 0.00 | 0.00 | 0.00 | 76 | 1016.4 |
| 20260506170947 | 78 | 198 | 3.0 | 3.0 | 0.00 | 0.00 | 0.00 | 74 | 1016.4 |
| 20260506170443 | 78 | 196 | 3.0 | 3.0 | 0.00 | 0.00 | 0.00 | 74 | 1016.5 |
| 20260506165936 | 78 | 201 | 1.0 | 2.0 | 0.00 | 0.00 | 0.00 | 74 | 1016.4 |
| 20260506165435 | 78 | 217 | 3.0 | 5.0 | 0.00 | 0.00 | 0.00 | 72 | 1016.5 |
| 20260506164930 | 78 | 193 | 3.0 | 5.0 | 0.00 | 0.00 | 0.00 | 72 | 1016.0 |
| 20260506164427 | 78 | 215 | 1.0 | 1.0 | 0.00 | 0.00 | 0.00 | 73 | 1016.3 |